Погода Правая Хетта

Погода Правая Хетта : погода сейчас, прогноз погоды и архив. Всё, что Вы хотите узнать о погоде Правая Хетта!

Хотите узнать прогноз погоды Правая Хетта? Тогда Вам сюда: Погода Правая Хетта

Поиск расширенной информации на нашем сайте:

Другие новости

Новости СМИ2

Главная страница сайта

Новости сайта

03.07.2017

Напоминаем, что на нашем специализированном сайте Метеоцентр.Азия вы можете получить высокодетализированные автоматические прогнозы погоды по пунктам России, СНГ и мира в авиационном формате (включающие направление и скорость ветра, видимость, явления погоды, количество и форму облачности, нижнюю и верхнюю границу облачности).


Погода Правая Хетта - сегодня

Время (UTC), дата Ветер
(°,м/с) 
Видим.   Явления Облачность Т
(°С)
Тd
(°С)
f(%) Тe
(°С)
Pmin
(гПа)
dP
(гПа)
Po
(мм)
O2
(г/м3)
Тmin Tmax R s Состояние
почвы
12 19.07.17 110 (В) 20000 м    9/8 700 м верхняя 
[Cu hum|Cs]
+28 +7 26 +28  1014.6  -0.8  757  275           
15 19.07.17 100 (В) 20000 м    3/3 300 м 
[Cu hum]
+24.4 +9.7 39 +25  1014.5  -0.2  756  278    +29.3       
18 19.07.17 050 (СВ) 20000 м    ясно 
+16.5 +12.3 76 +22  1015.4  0.7  757  285           
21 19.07.17 тихо ()   20000 м    ясно 
+12.5 +12.3 99 +17  1015.6  0.1  757  289           
00 20.07.17 тихо ()   20000 м    ясно 
+16.9 +13 78 +22  1015.6  0.1  757  285           
06 20.07.17 010 (С) 20000 м    6/6 870 м 
[Cu hum]
+28.4 +7.4 27 +28  1014.8  -0.3  757  275           
09 20.07.17 140 (ЮВ) 20000 м    8/5 1000 м верхняя 
[Cu hum|Ci fib]
+29.2 +7.6 26 +29  1014.5  -0.3  756  274           
12 20.07.17 070 (В) 20000 м    8/4 1000 м верхняя 
[Cu hum|Ci fib]
+29.2 +7 25 +29  1013.9  -0.6  756  274           
18 20.07.17 тихо ()   20000 м    8/0 верхняя 
[Cc]
+16.7 +13.5 81 +23  1015.5  0.8  757  285           
21 20.07.17 060 (СВ) 20000 м  туман поземный  8/0 средняя, верхняя 
[Ac trans|Cs]
+13.8 +13.3 97 +21  1016.2  0.6  758  288           
00 21.07.17 080 (В) 20000 м    6/0 верхняя 
[Cc]
+17.5 +13.8 79 +25  1016.5  0.4  758  284           
06 21.07.17 130 (ЮВ) 20000 м    4/4 300 м 
[Cu med, cong]
+28.3 +9 30 +28  1017.4  0.3  759  275           
09 21.07.17 100 (В) 20000 м    3/3 600 м верхняя 
[Cu med, cong|Ci fib]
+29.6 +7.2 24 +30  1016.7  -0.6  758  274           
12 21.07.17 070 (В) 20000 м    4/3 600 м верхняя 
[Cu med, cong|Ci]
+29.4 +7.5 25 +29  1016.5  -0.2  758  275           
15 21.07.17 090 (В) 20000 м    4/0 верхняя 
[Ci fib]
+25.8 +10.8 39 +28  1016.9  0.3  758  277    +30.3       
18 21.07.17 060 (СВ) 20000 м    3/0 верхняя 
[Ci fib]
+19.5 +12.1 62 +25  1017.7  0.7  759  283           
21 21.07.17 050 (СВ) 20000 м    ясно 
+15.1 +12.2 83 +20  1018  0.2  759  287           
00 22.07.17 060 (СВ) 20000 м    3/0 верхняя 
[Ci fib]
+17.6 +12.1 70 +23  1017.8  -0.2  759  285           
03 22.07.17 090 (В) 20000 м    6/0 верхняя 
[Ci fib]
+25.7 +8.4 33 +26  1017.7  0.1  759  278  +14.5        сухая 
06 22.07.17 090 (В) 20000 м    4/0 верхняя 
[Ci]
+28.3 +5.7 24 +28  1017.3  -0.4  758  276           
09 22.07.17 110 (В) 20000 м    4/4 300 м 
[Cu med, cong]
+30.3 +5.7 21 +30  1016.5  -0.7  758  274           
12 22.07.17 100 (В) 20000 м    6/3 300 м верхняя 
[Cu med, cong|Ci sp]
+29.3 +6.2 23 +29  1015.3  -1.2  757  275           
18 22.07.17 080 (В) 20000 м    ясно 
+17.1 +14.3 84 +26  1016.5  0.5  758  284           
21 22.07.17 070 (В) 20000 м  туман поземный  ясно 
+12.9 +11.2 89 +17  1016.3  -0.3  758  289           
00 23.07.17 070 (В) 20000 м    ясно 
+16.4 +10.5 68 +19  1016.4  0.2  758  286           
Время (UTC), дата Ветер
(°,м/с) 
Видим.   Явления Облачность Т
(°С)
Тd
(°С)
f(%) Тe
(°С)
Pmin
(гПа)
dP
(гПа)
Po
(мм)
O2
(г/м3)
Тmin Tmax R s Состояние
почвы

Для получения пояснительной информации подведите курсор к названию столбца.

ПОГОДА Правая Хетта - архив

Всё, что Вы хотите узнать о погоде Правая Хетта - удобно и подробно!

Выберите нужную дату (начиная с 1 января 2015* года) и нажмите кнопку "Найти".
Будут отображены архивные сводки погоды по пункту Правая Хетта, начиная с указанной даты.


Отображать данные в формате CSV (для использования в таблицах Excel)


Внимание! Наш архив погоды предназначен исключительно для личного некоммерческого использования в познавательных целях. Если Вам необходимы официальные справки о состоянии погоды (для производственных, юридических, коммерческих и т.п. целей), обращайтесь в органы Росгидромета.

*Примечание: данная дата относится к архиву по метеостанциям СССР (Россия, СНГ, Балтия).
Архив по метеостанциям Зарубежной Европы и Азии (кроме Китая) хранится 10 дней, по другим регионам земного шара (Китай, Африка, Америка, Австралия, Океания) - 1 день.

Правая Хетта - район местоположения метеостанции


Название, широта, долгота, высота метеостанции:
Правая Хетта 65.9°ш. 74.5°д. 54 м над ур. моря [Российская Федерация]

Дополнительная информация

В oтличие oт бoльшинства пoгoдных сайтoв мы публикуем пoдрoбную метеoинфoрмацию в детальнoм прoфессиoнальнoм фoрмате.

Характеристики температуры и влажнoсти вoздуха измеряются на высoте 2 м в тени вдали oт зданий и деревьев.
Скoрoсть ветра измеряется на высoте 10 м (на урoвне рoста челoвека скoрoсть ветра ниже в 1.5-2 раза). Если метеoстанция нахoдится в гoрoде или в лесу, тo скoрoсть ветра занижена на 2-4 м/с пo сравнению с oткрытым местoм. Скoрoсть ветра над акватoриями крупных рек и oзёр, а также на вершинах хoлмoв на 2-5 м/с выше, чем в oбычных услoвиях.
Атмoсфернoе давление в разных тoчках местнoсти мoжет значительнo oтличаться oт давления на метеoстанции, в зависимoсти oт услoвий рельефа (при пoдъёме на 10 м давление пoнижается примернo на 1 мм рт.ст.).